GW0791 Weather Reports


time (UTC)temp
F
wind
direction
speed
knots
gust
knots
rain 1hr
in
rain 24hr
in
rain mn
in
humidity
%
barometer
mb
20260504171535 68 360 1.7 7.0 0.00 0.00 0.00 64 1012.1
20260504120105 47 360 0.9 3.5 0.00 0.00 0.00 90 1014.9
20260504081529 44 360 0.0 0.0 0.00 0.00 0.00 85 1015.3
20260504050001 49 360 0.0 0.0 0.00 0.00 0.00 81 1016.6
20260504044605 50 360 0.0 1.7 0.00 0.00 0.00 80 1016.9
20260504043059 50 360 0.0 0.0 0.00 0.00 0.00 79 1017.0
20260504041557 50 360 0.0 0.9 0.00 0.00 0.00 78 1017.2
20260504040107 50 360 0.0 0.0 0.00 0.00 0.00 78 1017.3
20260504034620 50 360 0.0 0.9 0.00 0.00 0.00 76 1017.0
20260504033055 51 360 0.0 0.0 0.00 0.00 0.00 74 1017.0
20260504031554 51 360 0.0 0.9 0.00 0.00 0.00 73 1016.9
20260504030118 51 360 0.0 0.9 0.00 0.00 0.00 73 1017.1
20260504024555 51 360 0.0 0.9 0.00 0.00 0.00 72 1017.1
20260504023050 51 360 0.0 0.0 0.00 0.00 0.00 71 1016.9
20260504021552 52 360 0.0 0.0 0.00 0.00 0.00 69 1016.9
20260504020052 52 360 0.0 0.0 0.00 0.00 0.00 67 1016.6
20260504014550 52 360 0.0 0.0 0.00 0.00 0.00 65 1016.3
20260504013052 53 360 0.0 0.0 0.00 0.00 0.00 64 1016.3
20260504011546 54 360 0.0 0.0 0.00 0.00 0.00 62 1016.3
20260504010045 55 360 0.0 0.0 0.00 0.00 0.00 60 1016.5
20260504004545 56 360 0.0 0.0 0.00 0.00 0.00 57 1016.5
20260504003044 57 360 0.0 0.0 0.00 0.00 0.00 54 1016.4
20260504001554 58 227 0.0 0.9 0.00 0.00 0.00 52 1016.4
20260504000040 59 227 0.0 0.9 0.00 0.00 0.00 47 1016.4
20260503234541 60 360 0.0 0.9 0.00 0.00 0.00 44 1016.2
20260503233009 61 360 0.0 2.6 0.00 0.00 0.00 43 1016.2
20260503231508 61 219 0.0 3.5 0.00 0.00 0.00 40 1016.7
20260503230003 62 198 0.0 4.3 0.00 0.00 0.00 41 1016.8
20260503224502 62 319 0.9 5.2 0.00 0.00 0.00 39 1016.7
20260503223004 62 22 0.0 7.8 0.00 0.00 0.00 36 1017.1
20260503221501 62 62 0.9 5.2 0.00 0.00 0.00 36 1017.0
20260503220057 63 271 0.9 3.5 0.00 0.00 0.00 37 1017.2
20260503214602 63 292 1.7 8.7 0.00 0.00 0.00 33 1017.2
20260503213055 63 360 2.6 7.0 0.00 0.00 0.00 34 1017.2
20260503211556 64 360 1.7 7.0 0.00 0.00 0.00 33 1017.3
20260503210050 64 360 0.9 7.8 0.00 0.00 0.00 34 1017.4
20260503204556 65 269 3.5 8.7 0.00 0.00 0.00 33 1017.6
20260503203051 64 88 0.9 8.7 0.00 0.00 0.00 34 1017.8
20260503201546 64 304 3.5 7.0 0.00 0.00 0.00 35 1018.1
20260503200014 65 305 2.6 6.1 0.00 0.00 0.00 33 1018.3
20260503194512 64 153 0.0 5.2 0.00 0.00 0.00 40 1018.6
20260503193005 64 82 1.7 7.0 0.00 0.00 0.00 36 1018.8
20260503191504 63 312 2.6 11.3 0.00 0.00 0.00 35 1019.1
20260503190001 64 258 0.0 3.5 0.00 0.00 0.00 41 1019.3
20260503184602 62 333 2.6 7.8 0.00 0.00 0.00 34 1019.7
20260503183102 62 281 0.9 6.1 0.00 0.00 0.00 35 1019.8
20260503181551 62 237 0.9 7.8 0.00 0.00 0.00 41 1020.2
20260503180056 61 360 1.7 8.7 0.00 0.00 0.00 37 1020.5
20260503174551 60 360 2.6 9.6 0.00 0.00 0.00 39 1020.8
20260503173107 61 175 0.9 6.1 0.00 0.00 0.00 37 1020.9